DateTimeUTC,F1_A11,F1_S11,BsB_S11,BsG_S11,BsR_S11,BbsB_S11,BbsG_S11,BbsR_S11,BaB_A11,BaG_A11,BaR_A11,Tu_S11,T_S11,Uu_S11,U_S11,P_S11,T1_A11
2021-10-23T13:00:00Z,00000200,21000000,,,,,,,-000.05,0000.11,-000.14,17.3,24.3,,00.0,0644.5,31.0
2021-10-23T13:01:00Z,00000200,21000000,,,,,,,0000.05,-000.02,-000.06,17.3,24.3,,00.0,0644.5,31.0
2021-10-23T13:02:00Z,00000200,21000000,,,,,,,0000.02,-000.23,-000.23,17.2,24.3,,00.0,0644.5,31.0
2021-10-23T13:03:00Z,00000200,61000000,,,,,,,-000.09,-000.09,0000.03,17.2,24.3,,00.0,0644.5,31.0
2021-10-23T13:04:00Z,00000200,41000000,0000.22,0000.34,0000.22,-000.51,0000.33,0000.09,0000.02,0000.01,0000.15,17.4,24.2,,00.0,0645.4,31.0
2021-10-23T13:05:00Z,00000200,01000000,0000.84,-000.04,-000.21,0000.16,0000.31,0000.05,0000.08,-000.34,-000.00,17.5,24.2,,00.0,0645.5,31.0
2021-10-23T13:06:00Z,00000200,01000000,0000.51,0000.23,0000.21,0000.12,0000.32,0000.11,-000.09,0000.26,-000.10,17.5,24.2,,00.0,0645.5,31.0
2021-10-23T13:07:00Z,00000200,01000000,0000.68,0000.41,-000.04,-000.06,-000.09,0000.12,-000.13,-000.02,0000.14,17.6,24.2,,00.0,0645.5,31.0
2021-10-23T13:08:00Z,00000200,01000000,0000.44,0000.28,0000.19,0000.12,0000.07,0000.04,-000.18,-000.26,0000.06,17.6,24.1,,00.0,0645.5,31.0
2021-10-23T13:09:00Z,00000200,01000000,0000.55,0000.15,0000.21,-000.43,0000.07,0000.11,0000.15,-000.13,-000.41,17.5,24.1,,00.0,0645.4,31.0
2021-10-23T13:10:00Z,00000200,01000000,-000.21,0000.29,0000.16,-000.20,-000.01,0000.24,-000.19,0000.09,0000.18,17.4,24.1,,00.0,0645.6,30.9
2021-10-23T13:11:00Z,00000200,01000000,-000.14,0000.20,0000.15,-000.59,0000.15,-000.11,0000.34,0000.04,0000.19,17.3,24.0,,00.0,0645.5,30.9
2021-10-23T13:12:00Z,00000200,01000000,0000.77,0000.17,-000.03,-000.09,-000.18,0000.06,-000.00,0000.23,-000.13,17.2,24.0,,00.0,0645.7,30.9
2021-10-23T13:13:00Z,00000200,01000000,0000.36,0000.40,0000.18,-000.41,0000.17,-000.01,0000.11,-000.01,-000.06,17.1,23.9,,00.0,0645.6,30.9
2021-10-23T13:14:00Z,00000200,01000000,0000.13,0000.22,0000.41,0000.09,-000.07,-000.01,0000.34,-000.08,-000.14,17.1,23.8,,00.0,0645.5,30.9
2021-10-23T13:15:00Z,00000200,01000000,0000.09,0000.67,0000.14,-000.31,-000.11,-000.06,-000.19,0000.33,0000.16,17.0,23.8,,00.0,0645.6,30.9
2021-10-23T13:16:00Z,00000200,01000000,0000.63,0000.33,0000.54,-000.33,-000.17,0000.02,-000.02,-000.18,-000.05,17.1,23.8,,00.0,0645.6,30.9
2021-10-23T13:17:00Z,00000200,01000000,0000.63,-000.20,0000.38,-000.05,0000.04,0000.17,0000.25,0000.35,0000.21,17.1,23.8,,00.0,0645.5,30.9
2021-10-23T13:18:00Z,00000200,01000000,0000.59,0000.10,0000.35,0000.22,0000.17,0000.19,0000.24,0000.59,0000.33,17.1,23.8,,00.0,0645.4,30.9
2021-10-23T13:19:00Z,00000200,01000000,0000.07,-000.00,0000.16,0000.29,-000.33,0000.08,0000.44,-000.03,0000.18,17.2,23.9,,00.0,0645.5,31.0
2021-10-23T13:20:00Z,00000200,01000000,-000.11,0000.17,0000.36,0000.51,0000.35,0000.11,0000.20,0000.25,0000.43,17.3,23.9,,00.0,0645.5,31.0
2021-10-23T13:21:00Z,00000200,01000000,0000.12,0000.23,0000.02,-000.18,0000.08,0000.19,0000.27,-000.15,-000.10,17.4,23.9,,00.0,0645.5,31.0
2021-10-23T13:22:00Z,00000200,01000000,-000.07,0000.52,0000.46,0000.05,0000.11,0000.19,0000.08,0000.81,0000.58,17.4,23.9,,00.0,0645.5,31.0
2021-10-23T13:23:00Z,00000200,01000000,-000.18,-000.03,0000.25,-000.32,0000.12,0000.37,0000.19,0000.04,0000.09,17.5,23.9,,00.0,0645.4,31.0
2021-10-23T13:24:00Z,00000200,01000000,0000.24,0000.24,0000.46,-000.39,0000.24,0000.24,0000.50,0000.59,-000.07,17.5,24.0,,00.0,0645.4,31.0
2021-10-23T13:25:00Z,00000200,01000000,0000.33,0000.15,0000.13,0000.89,0000.08,0000.00,0000.04,-000.09,0000.32,17.6,24.0,,00.0,0645.4,31.0
2021-10-23T13:26:00Z,00000200,01000000,0000.71,0000.30,0000.12,0000.25,0000.34,-000.21,0000.01,0000.07,-000.20,17.6,24.0,,00.0,0645.5,31.0
2021-10-23T13:27:00Z,00000200,01000000,0000.03,0000.25,0000.50,-000.22,0000.19,0000.29,-000.09,-000.18,0000.05,17.7,24.0,,00.0,0645.6,31.0
2021-10-23T13:28:00Z,00000200,01000000,0000.33,0000.30,0000.10,-000.09,0000.29,-000.17,0000.00,-000.42,-000.50,17.6,24.0,,00.0,0645.5,31.0
2021-10-23T13:29:00Z,00000200,01000000,-000.09,0000.55,0000.05,-000.47,0000.37,0000.11,-000.22,0000.27,-000.31,17.6,24.0,,00.0,0645.5,31.0
2021-10-23T13:30:00Z,00000200,01000000,0000.67,0000.40,0000.20,0000.11,0000.36,-000.06,0000.01,-000.23,0000.47,17.5,24.0,,00.0,0645.5,31.0
2021-10-23T13:31:00Z,00000200,01000000,-000.73,0000.36,0000.29,-000.66,-000.00,0000.28,-000.02,-000.12,-000.13,17.5,24.0,,00.0,0645.5,31.0
2021-10-23T13:32:00Z,00000200,01000000,-000.53,0000.20,-000.07,-000.29,-000.13,0000.20,0000.17,0000.17,0000.48,17.6,24.0,,00.0,0645.5,31.0
2021-10-23T13:33:00Z,00000200,01000000,-000.26,0000.29,0000.19,-000.87,-000.24,0000.08,0000.14,0000.40,-000.11,17.6,24.0,,00.0,0645.6,31.0
2021-10-23T13:34:00Z,00000200,01000000,0000.25,0000.06,0000.51,0000.19,-000.02,0000.16,-000.26,0000.16,-000.01,17.6,24.0,,00.0,0645.6,31.0
2021-10-23T13:35:00Z,00000200,01000000,0000.02,0000.22,0000.18,-000.08,-000.00,0000.32,0000.39,-000.31,0000.12,17.7,24.0,,00.0,0645.6,31.0
2021-10-23T13:36:00Z,00000200,01000000,0000.21,0000.28,0000.15,-000.19,-000.04,0000.11,0000.07,0000.43,0000.18,17.7,24.0,,00.0,0645.7,31.0
2021-10-23T13:37:00Z,00000200,01000000,-000.48,-000.12,0000.08,-000.14,0000.02,0000.01,0000.34,-000.21,-000.07,17.7,24.1,,00.0,0645.6,31.0
2021-10-23T13:38:00Z,00000200,01000000,0000.62,0000.45,0000.16,-000.06,0000.26,0000.11,-000.25,0000.46,0000.20,17.8,24.1,,00.0,0645.7,31.0
2021-10-23T13:39:00Z,00000200,01000000,0000.86,-000.12,0000.06,0000.33,0000.21,0000.16,0000.06,-000.35,-000.07,17.7,24.1,,00.0,0645.6,31.0
2021-10-23T13:40:00Z,00000200,01000000,-000.08,0000.53,-000.15,0000.35,0000.16,0000.28,-000.41,-000.05,-000.07,17.6,24.0,,00.0,0645.6,31.0
2021-10-23T13:41:00Z,00000200,01000000,0000.67,-000.02,-000.02,0000.17,-000.02,0000.25,0000.57,-000.06,0000.00,17.5,24.0,,00.0,0645.5,30.9
2021-10-23T13:42:00Z,00000200,01000000,0000.34,0000.32,0000.10,-000.14,-000.02,0000.37,-000.27,0000.29,0000.01,17.4,23.9,,00.0,0645.5,30.9
2021-10-23T13:43:00Z,00000200,01000000,0000.33,0000.20,0000.27,-000.09,0000.08,0000.17,0000.47,0000.29,0000.16,17.3,23.8,,00.0,0645.5,30.9
2021-10-23T13:44:00Z,00000200,01000000,0000.03,0000.26,0000.22,-000.58,-000.16,0000.16,0000.64,-000.35,0000.05,17.2,23.8,,00.0,0645.5,30.9
2021-10-23T13:45:00Z,00000200,01000000,0000.30,0000.19,0000.08,0000.33,-000.09,0000.16,-000.43,-000.07,0000.35,17.2,23.7,,00.0,0645.5,30.9
2021-10-23T13:46:00Z,00000200,01000000,-000.39,0000.26,0000.25,-000.35,0000.36,0000.28,0000.23,0000.28,-000.40,17.2,23.8,,00.0,0645.5,30.9
2021-10-23T13:47:00Z,00000200,01000000,0000.34,0000.21,0000.19,-000.53,-000.24,0000.05,0000.16,-000.08,0000.34,17.2,23.8,,00.0,0645.4,30.9
2021-10-23T13:48:00Z,00000200,01000000,0000.23,0000.35,0000.41,-000.43,0000.08,0000.33,0000.52,0000.67,0000.34,17.2,23.8,,00.0,0645.4,30.9
2021-10-23T13:49:00Z,00000200,01000000,-000.21,0000.24,0000.14,-000.00,-000.00,0000.21,-000.14,0000.28,0000.42,17.3,23.8,,00.0,0645.4,30.9
2021-10-23T13:50:00Z,00000200,01000000,-000.04,0000.21,0000.25,0000.47,0000.22,-000.23,0000.30,0000.41,-000.08,17.3,23.8,,00.0,0645.4,30.9
2021-10-23T13:51:00Z,00000200,01000000,0000.23,0000.22,0000.04,-000.06,-000.04,0000.09,0000.02,-000.21,-000.34,17.4,23.9,,00.0,0645.4,31.0
2021-10-23T13:52:00Z,00000200,01000000,-000.07,0000.32,0000.23,0000.16,0000.15,0000.22,0000.28,0000.35,0000.50,17.5,23.9,,00.0,0645.4,31.0
2021-10-23T13:53:00Z,00000200,01000000,0000.92,0000.08,0000.36,-000.47,-000.19,0000.13,0000.19,0000.06,-000.16,17.5,23.9,,00.0,0645.5,31.0
2021-10-23T13:54:00Z,00000200,01000000,0000.41,-000.04,0000.21,-000.04,0000.07,-000.41,-000.08,0000.05,0000.22,17.6,23.9,,00.0,0645.5,30.9
2021-10-23T13:55:00Z,00000200,01000000,0000.49,0000.55,0000.50,0000.11,0000.67,0000.10,0000.12,-000.11,0000.25,17.6,23.9,,00.0,0645.6,31.0
2021-10-23T13:56:00Z,00000200,01000000,0000.15,-000.07,0000.25,-000.22,0000.39,0000.07,0000.05,0000.09,-000.25,17.7,23.9,,00.0,0645.6,31.0
2021-10-23T13:57:00Z,00000200,41000000,,,,,,,-000.54,-000.36,-000.16,17.7,24.0,,00.0,0645.6,31.0
2021-10-23T13:58:00Z,00000200,61000000,,,,,,,-000.07,0000.12,-000.17,17.4,24.1,,00.0,0644.7,31.0
2021-10-23T13:59:00Z,00000200,21000000,,,,,,,0000.14,0000.34,0000.20,17.4,24.2,,00.0,0644.7,31.0
